Location: Faicchio
(41.2833°N, 14.4833°E)
Time: 06:23:42
(UTC+00:00)

Meteor 1-21 Rocket - Pass Details

Date: 15 June 2025
Orbit: 832 x 906 km, 81.2° (Epoch: 16 July)

Event Time Altitude Azimuth Distance (km) Brightness Sun altitude
Exits shadow 00:19:50 50° 188° (S) 1,142 4.4 -23.0°
Maximum altitude 00:21:31 89° 101° (ESE) 909 4.2 -22.9°
Drops below altitude 10° 00:27:25 10° 10° (N) 2,575 7.8 -22.5°
Sets 00:29:52 0° 10° (N) 3,510 8.8 -22.3°
